Weather History for Whiting Fld NAS, FL

Change the Weather History Date:

Sunday, December 9, 2012

  Actual Average Record
Temperature  
Mean Temperature 64 °F -  
Max Temperature 75 °F 61 °F 80 °F (2007)
Min Temperature 53 °F 44 °F 27 °F (2010)
Degree Days  
Heating Degree Days 1    
Growing Degree Days 14 (Base 50)    
Moisture  
Dew Point 59 °F    
Average Humidity 81    
Maximum Humidity 89    
Minimum Humidity 60    
Precipitation  
Precipitation 0.00 in - - ()
Sea Level Pressure  
Sea Level Pressure 29.99 in    
Wind  
Wind Speed 3 mph (SE)    
Max Wind Speed 13 mph    
Max Gust Speed -    
Visibility 6 miles    
Events Fog    
Averages and records for this station are not official NWS values.
T = Trace of Precipitation, MM = Missing Value Source: NWS Daily Summary

Daily Weather History Graph

Daily Weather History Graph

Search for Another Location

Airport:

Trip Planner

Search our weather history database for the weather conditions in past years. The results will help you decide how hot, cold, wet, or windy it might be!

Date:

Astronomy

Dec. 09, 2012 Rise Set
Actual Time 6:34 AM CST 4:46 PM CST
Civil Twilight 6:07 AM CST 5:13 PM CST
Nautical Twilight 5:37 AM CST 5:43 PM CST
Astronomical Twilight 5:08 AM CST 6:12 PM CST
Moon 2:19 AM CST (12/9) 1:43 PM CST (12/9)
Length of Visible Light 11h 05m
Length of Day
10h 12m
Waning Crescent, 18% of the Moon is Illuminated
Dec 9
Waning Crescent
Dec 13
New
Dec 19
First Quarter
Dec 28
Full
Jan 4
Last Quarter

Hourly Weather History & Observations

Time (CST) Temp. Dew Point Humidity Pressure Visibility Wind Dir Wind Speed Gust Speed Precip Events Conditions
12:01 AM 57.2 °F 53.6 °F 88% 30.01 in 1.0 mi Calm Calm - N/A   Haze
12:07 AM 57.2 °F 53.6 °F 88% 30.02 in 0.2 mi Calm Calm - N/A   Haze
12:56 AM 55.0 °F 52.0 °F 89% 29.97 in 0.2 mi Calm Calm - N/A Fog Fog
1:56 AM 53.1 °F 48.9 °F 86% 29.97 in 0.2 mi Calm Calm - N/A Fog Fog
2:56 AM 54.0 °F 50.0 °F 86% 29.97 in 0.5 mi Calm Calm - N/A Fog Fog
3:46 AM 53.6 °F 48.2 °F 82% 30.01 in 0.2 mi Calm Calm - N/A Fog Fog
3:56 AM 53.1 °F 48.9 °F 86% 29.98 in 0.2 mi Calm Calm - N/A Fog Fog
4:56 AM 57.0 °F 53.1 °F 87% 29.99 in 0.2 mi East 3.5 mph - N/A Fog Fog
5:56 AM 57.0 °F 54.0 °F 89% 30.00 in 0.2 mi Calm Calm - N/A Fog Fog
6:56 AM 59.0 °F 55.0 °F 87% 30.02 in 0.2 mi Calm Calm - N/A Fog Fog
7:56 AM 61.0 °F 57.0 °F 87% 30.04 in 0.2 mi ESE 4.6 mph - N/A Fog Fog
8:56 AM 63.0 °F 59.0 °F 87% 30.05 in 0.2 mi ESE 4.6 mph - N/A Fog Fog
9:42 AM 64.4 °F 60.8 °F 88% 30.09 in 1.0 mi East 4.6 mph - N/A   Overcast
9:52 AM 66.2 °F 62.6 °F 88% 30.09 in 3.0 mi ESE 3.5 mph - N/A   Overcast
9:56 AM 66.0 °F 62.1 °F 87% 30.05 in 4.0 mi ESE 3.5 mph - N/A   Overcast
10:28 AM 66.2 °F 62.6 °F 88% 30.08 in 10.0 mi ESE 4.6 mph - N/A   Mostly Cloudy
10:56 AM 72.0 °F 62.1 °F 71% 30.03 in 10.0 mi Variable 3.5 mph - N/A   Scattered Clouds
11:43 AM 75.2 °F 60.8 °F 61% 30.05 in 10.0 mi South 9.2 mph - N/A   Overcast
11:56 AM 75.0 °F 60.1 °F 60% 30.00 in 10.0 mi South 8.1 mph - N/A   Mostly Cloudy
12:56 PM 75.9 °F 61.0 °F 60% 29.97 in 10.0 mi South 12.7 mph - N/A   Mostly Cloudy
1:56 PM 73.9 °F 61.0 °F 64% 29.97 in 10.0 mi South 11.5 mph - N/A   Overcast
2:56 PM 75.9 °F 61.0 °F 60% 29.96 in 10.0 mi South 10.4 mph - N/A   Partly Cloudy
3:56 PM 73.9 °F 61.0 °F 64% 29.96 in 10.0 mi South 11.5 mph - N/A   Mostly Cloudy
4:56 PM 70.0 °F 61.0 °F 73% 29.96 in 10.0 mi SSE 8.1 mph - N/A   Mostly Cloudy
5:56 PM 66.9 °F 61.0 °F 81% 29.96 in 10.0 mi SE 5.8 mph - N/A   Scattered Clouds
6:56 PM 66.9 °F 61.0 °F 81% 29.96 in 10.0 mi SE 4.6 mph - N/A   Mostly Cloudy
7:10 PM 68.0 °F 62.6 °F 83% 29.99 in 10.0 mi SE 3.5 mph - N/A   Mostly Cloudy
7:56 PM 68.0 °F 63.0 °F 84% 29.96 in 10.0 mi SSE 6.9 mph - N/A   Overcast
8:16 PM 66.2 °F 62.6 °F 88% 30.00 in 10.0 mi SE 5.8 mph - N/A   Mostly Cloudy
8:56 PM 66.9 °F 62.1 °F 84% 29.95 in 10.0 mi SSE 5.8 mph - N/A   Mostly Cloudy
9:10 PM 68.0 °F 62.6 °F 83% 29.99 in 10.0 mi SSE 8.1 mph - N/A   Mostly Cloudy
9:42 PM 68.0 °F 62.6 °F 83% 29.98 in 10.0 mi SSE 6.9 mph - N/A   Scattered Clouds
9:56 PM 68.0 °F 63.0 °F 84% 29.94 in 10.0 mi South 6.9 mph - N/A   Partly Cloudy
10:56 PM 69.1 °F 63.0 °F 81% 29.93 in 10.0 mi South 9.2 mph - N/A   Clear
11:56 PM 68.0 °F 63.0 °F 84% 29.91 in 10.0 mi South 8.1 mph - N/A   Partly Cloudy